Regional Weather Roundup
Issued by NWS

Home | Current Version | Previous Version | Graphics & Text | Print | Product List | Glossary On
Versions: 1 2 3 4 5 6 7 8 9 10 11 12 13 14 15 16 17 18 19 20 21 22 23 24 25 26 27 28 29 30 31 32 33 34 35 36 37 38 39 40 41 42 43 44 45 46 47 48 49 50
000
ASUS43 KLOT 251622
RWRIL

ILLINOIS REGIONAL WEATHER ROUNDUP
NATIONAL WEATHER SERVICE CHICAGO/ROMEOVILLE IL
1100 AM CDT MON MAY 25 2015

NOTE: "FAIR" INDICATES FEW OR NO CLOUDS BELOW 12,000 FEET WITH NO
SIGNIFICANT WEATHER AND/OR OBSTRUCTIONS TO VISIBILITY.

* THESE STATIONS ARE NOT UNDER NWS QUALITY CONTROL. THEY ALSO MAY NOT
  REPORT WEATHER SUCH AS PRECIPITATION OR FOG.

ILZ001-002-007-009-015-016-024-251700-
NORTHWEST ILLINOIS

CITY           SKY/WX    TMP DP  RH WIND       PRES   REMARKS
MOLINE         PTSUNNY   71  61  70 W15       29.88R
STERLING*      CLOUDY    72  64  78 W16G23    29.89R
SAVANNA*       CLOUDY    69  63  80 SW14G20   29.86R
$$

ILZ003-004-008-010-011-017-018-251700-
NORTH CENTRAL ILLINOIS

CITY           SKY/WX    TMP DP  RH WIND       PRES   REMARKS
ROCKFORD       CLOUDY    71  61  70 SW16G23   29.86R
FREEPORT*      CLOUDY    66  62  89 SW14G24   29.87R
ROCHELLE*      PTSUNNY   70  64  82 W18       29.88R
DE KALB*       CLOUDY    68  62  83 SW14G22   29.88R
PERU*          CLOUDY    71  67  87 SW16      29.90R
$$

ILZ005-006-012>014-019>023-251700-
NORTHEAST ILLINOIS

CITY           SKY/WX    TMP DP  RH WIND       PRES   REMARKS
CHICAGO-OHARE  CLOUDY    68  64  87 SW14      29.87R
CHICAGO-MIDWAY LGT RAIN  68  65  90 SW17      29.89R
AURORA         CLOUDY    70  64  81 SW12      29.88R
LANSING*       CLOUDY    71  62  73 SW20G33   29.91R
JOLIET*        CLOUDY    72  66  83 SW12G21   29.89F
WAUKEGAN       LGT RAIN  68  64  87 SW13G29   29.84S
DUPAGE AIRPORT HVY RAIN  67  65  93 SW13G23   29.87R FOG
KANKAKEE*      CLOUDY    76  64  67 SW23G33   29.92S
WHEELING       CLOUDY    69  65  86 SW13G23   29.87R
MORRIS*        CLOUDY    71  65  82 SW22G28   29.87S
ROMEOVILLE*    CLOUDY    70  65  84 SW18G25   29.88F
NORTHERLY ISL    N/A     66  61  84 W13         N/A
$$

LMZ740>746-251700-
SOUTHERN LAKE MICHIGAN

STATION/POSITION SKY/WX   TEMP    WIND        PRES    VSBY  WAVE
                          AIR SEA DIR/SP/G                  HT/PER
                          (F)     (DEG/KT/KT) (MB)    (MI)  (FT/S)
SOUTHERN BUOY              49 38  190/ 17/ 19 1011.1R         2/ 4
HARRISON CRIB              66     210/ 26/ 34   N/A
BURNHAM HARBOR             67     200/ 11/ 26   N/A
CALUMET HARBOR             72     190/ 16/ 25   N/A
BURNS HARBOR               73     210/ 19/ 32 1012.2F
MICHIGAN CITY              73     180/ 22/ 32   N/A
MICHIGAN CITY 6N           64 52  230/ 14/ 19   N/A           4/ 3
ST. JOSEPH                 64 54  230/ 14/ 17   N/A           3/ 3
$$

ILZ025>027-034>036-040-047-049-050-058-095>099-251700-
WEST-CENTRAL ILLINOIS

CITY           SKY/WX    TMP DP  RH WIND       PRES   REMARKS
QUINCY         PTSUNNY   71  63  75 SW14      29.97R
GALESBURG*     CLOUDY    70  62  76 SW14G23   29.93R
MACOMB*        PTSUNNY   70  64  82 SW14G20   29.96R
JACKSONVILLE*  PTSUNNY   73  64  72 SW14      29.99R
PITTSFIELD*    MOSUNNY   73  62  70 SW12      30.00R
$$

ILZ028>032-037-038-041>044-048-051>054-059>061-251700-
CENTRAL ILLINOIS

CITY           SKY/WX    TMP DP  RH WIND       PRES   REMARKS
PONTIAC        CLOUDY    72  67  84 SW24G30   29.93S
BLOOMINGTON    CLOUDY    70  64  81 SW21      29.97R
DECATUR        PTSUNNY   75  62  64 SW23G31   30.00R
PEORIA         PTSUNNY   73  63  70 SW15G23   29.94R
LACON*         PTSUNNY   70  63  78 SW14G22   29.91R
LINCOLN*       CLOUDY    71  62  71 SW12G22   29.96R
SPRINGFIELD    CLOUDY    73  61  65 SW13G24   30.00R
TAYLORVILLE    PTSUNNY   72  63  73 SW16G25   30.01S
$$

ILZ033-039-045-046-055>057-062-063-251700-
EAST-CENTRAL ILLINOIS

CITY           SKY/WX    TMP DP  RH WIND       PRES   REMARKS
CHAMPAIGN      PTSUNNY   79  59  50 SW28G38   29.99R HX  80
DANVILLE*      CLOUDY    76  64  67 SW24G37   29.97R
RANTOUL*       CLOUDY    76  63  62 SW26G35   29.97S
MATTOON        PTSUNNY   74  65  73 SW14G24   30.01F
PARIS*         CLOUDY    78  66  66 S24G31    30.03S HX  80
$$

ILZ079-100>102-251700-
SOUTHWEST ILLINOIS

CITY           SKY/WX    TMP DP  RH WIND       PRES   REMARKS
BELLEVILLE     PTSUNNY   76  68  74 SW8       30.02R
CAHOKIA*       PTSUNNY   77  64  64 S9        30.02S
SPARTA*        PTSUNNY   74  68  79 S12       30.05S
$$

ILZ064>066-069>071-074>076-080>082-084>086-088>090-092>094-251700-
SOUTH-CENTRAL ILLINOIS

CITY           SKY/WX    TMP DP  RH WIND       PRES   REMARKS
CARBONDALE     CLOUDY    73  66  78 SW14      30.06S
CAIRO*         CLOUDY    73  69  89 S12       30.08S
EFFINGHAM*     PTSUNNY   75  64  67 S12G21    30.05S
MARION         CLOUDY    73  68  83 S15       30.08S
MT. VERNON     CLOUDY    73  64  73 S14       30.08R
CENTRALIA*     PTSUNNY   79  67  66 S13       30.05S HX  81
SALEM*         PTSUNNY   77  67  72 S15G24    30.05S
METROPOLIS*    CLOUDY    72  70  95 S6        30.09R
$$

ILZ067-068-072-073-078-083-087-091-251700-
SOUTHEAST ILLINOIS

CITY           SKY/WX    TMP DP  RH WIND       PRES   REMARKS
LAWRENCEVILLE  CLOUDY    72  66  81 SW15      30.09R
FLORA*         PTSUNNY   72  67  84 S14       30.07S
FAIRFIELD*     CLOUDY    72  66  81 S13       30.07R
HARRISBURG*    CLOUDY    73  66  79 S14G21    30.09S
ROBINSON*      LGT RAIN  70  67  89 SW14      30.09R
CARMI*         CLOUDY    73  63  68 S14G20    30.09R
$$

ABBREVIATIONS USED IN REMARKS
   TC - TEMPERATURE IN CELSIUS
  WCI - WIND CHILL INDEX
   HX - HEAT INDEX
  VSB - VISIBILITY
$$




USA.gov is the U.S. government's official web portal to all federal, state and local government web resources and services.